date,time,SUV Intensity [MED/Hr],UV Index,Daily total [MED],Since Last [MED]
07/04/2022,00:06:45,0.000,0.0,0.0,0.0
07/04/2022,00:07:37,0.000,0.0,0.0,0.0
07/04/2022,00:08:37,0.001,0.0,0.0,0.0
07/04/2022,00:09:46,0.001,0.0,0.0,0.0
07/04/2022,00:11:39,0.000,0.0,0.0,0.0
07/04/2022,00:12:37,0.000,0.0,0.0,0.0
07/04/2022,00:13:37,-0.000,0.0,0.0,0.0
07/04/2022,00:14:38,0.001,0.0,0.0,0.0
07/04/2022,00:15:38,0.001,0.0,0.0,0.0
07/04/2022,00:16:37,0.001,0.0,0.0,0.0
07/04/2022,00:17:37,0.001,0.0,0.0,0.0
07/04/2022,00:18:39,0.001,0.0,0.0,0.0
07/04/2022,00:19:38,-0.000,0.0,0.0,0.0
07/04/2022,00:20:37,0.001,0.0,0.0,0.0
07/04/2022,00:21:38,0.001,0.0,0.0,0.0
07/04/2022,00:22:37,0.001,0.0,0.0,0.0
07/04/2022,00:23:38,0.001,0.0,0.0,0.0
07/04/2022,00:24:37,0.001,0.0,0.0,0.0
07/04/2022,00:25:37,0.001,0.0,0.0,0.0
07/04/2022,00:26:37,-0.000,0.0,0.0,0.0
07/04/2022,00:27:38,0.001,0.0,0.0,0.0
07/04/2022,00:28:38,0.001,0.0,0.0,0.0
07/04/2022,00:29:37,0.001,0.0,0.0,0.0
07/04/2022,00:30:45,0.001,0.0,0.0,0.0
07/04/2022,00:32:38,0.001,0.0,0.0,0.0
07/04/2022,00:33:37,0.001,0.0,0.0,0.0
07/04/2022,00:34:37,0.001,0.0,0.0,0.0
07/04/2022,00:35:37,0.001,0.0,0.0,0.0
07/04/2022,00:36:38,0.001,0.0,0.0,0.0
07/04/2022,00:37:37,0.001,0.0,0.0,0.0
07/04/2022,00:38:38,0.001,0.0,0.0,0.0
07/04/2022,00:39:37,0.001,0.0,0.0,0.0
07/04/2022,00:40:47,0.001,0.0,0.0,0.0
07/04/2022,00:42:38,0.001,0.0,0.0,0.0
07/04/2022,00:43:45,0.001,0.0,0.0,0.0
07/04/2022,00:44:36,0.001,0.0,0.0,0.0
07/04/2022,00:45:46,0.001,0.0,0.0,0.0
07/04/2022,00:46:37,0.001,0.0,0.0,0.0
07/04/2022,00:47:37,0.001,0.0,0.0,0.0
07/04/2022,00:48:38,0.001,0.0,0.0,0.0
07/04/2022,00:49:37,0.001,0.0,0.0,0.0
07/04/2022,00:50:37,0.001,0.0,0.0,0.0
07/04/2022,00:51:46,0.001,0.0,0.0,0.0
07/04/2022,00:52:37,0.001,0.0,0.0,0.0
07/04/2022,00:53:39,0.001,0.0,0.0,0.0
07/04/2022,00:54:45,0.001,0.0,0.0,0.0
07/04/2022,00:56:38,0.001,0.0,0.0,0.0
07/04/2022,00:57:37,0.001,0.0,0.0,0.0
07/04/2022,00:58:38,0.001,0.0,0.0,0.0
07/04/2022,00:59:37,0.001,0.0,0.0,0.0
07/04/2022,01:00:38,0.001,0.0,0.0,0.0
07/04/2022,01:01:37,0.001,0.0,0.0,0.0
07/04/2022,01:02:37,0.001,0.0,0.0,0.0
07/04/2022,01:03:37,0.001,0.0,0.0,0.0
07/04/2022,01:04:46,0.001,0.0,0.0,0.0
07/04/2022,01:05:45,0.001,0.0,0.0,0.0
07/04/2022,01:06:37,0.001,0.0,0.0,0.0
07/04/2022,01:07:38,0.002,0.0,0.0,0.0
07/04/2022,01:08:37,0.001,0.0,0.0,0.0
07/04/2022,01:09:37,0.001,0.0,0.0,0.0
07/04/2022,01:10:37,0.001,0.0,0.0,0.0
07/04/2022,01:11:38,0.001,0.0,0.0,0.0
07/04/2022,01:12:46,0.001,0.0,0.0,0.0
07/04/2022,01:13:37,0.001,0.0,0.0,0.0
07/04/2022,01:14:38,0.001,0.0,0.0,0.0
07/04/2022,01:15:39,0.001,0.0,0.0,0.0
07/04/2022,01:16:37,0.001,0.0,0.0,0.0
07/04/2022,01:17:38,0.001,0.0,0.0,0.0
07/04/2022,01:18:45,0.001,0.0,0.0,0.0
07/04/2022,01:20:38,0.001,0.0,0.0,0.0
07/04/2022,01:21:37,0.001,0.0,0.0,0.0
07/04/2022,01:22:38,0.002,0.0,0.0,0.0
07/04/2022,01:23:38,0.001,0.0,0.0,0.0
07/04/2022,01:24:37,0.001,0.0,0.0,0.0
07/04/2022,01:25:37,0.001,0.0,0.0,0.0
07/04/2022,01:26:45,0.001,0.0,0.0,0.0
07/04/2022,01:28:38,0.001,0.0,0.0,0.0
07/04/2022,01:29:37,0.001,0.0,0.0,0.0
07/04/2022,01:30:37,0.001,0.0,0.0,0.0
07/04/2022,01:31:38,0.001,0.0,0.0,0.0
07/04/2022,01:32:37,0.001,0.0,0.0,0.0
07/04/2022,01:33:37,0.001,0.0,0.0,0.0
07/04/2022,01:34:37,0.001,0.0,0.0,0.0
07/04/2022,01:35:38,0.001,0.0,0.0,0.0
07/04/2022,01:36:45,0.001,0.0,0.0,0.0
07/04/2022,01:37:37,0.001,0.0,0.0,0.0
07/04/2022,01:38:37,0.001,0.0,0.0,0.0
07/04/2022,01:42:45,0.001,0.0,0.0,0.0
07/04/2022,01:43:46,0.001,0.0,0.0,0.0
07/04/2022,01:44:37,0.001,0.0,0.0,0.0
07/04/2022,01:45:37,0.001,0.0,0.0,0.0
07/04/2022,01:46:38,0.001,0.0,0.0,0.0
07/04/2022,01:47:37,0.001,0.0,0.0,0.0
07/04/2022,01:48:37,0.001,0.0,0.0,0.0
07/04/2022,01:49:37,0.001,0.0,0.0,0.0
07/04/2022,01:50:38,0.001,0.0,0.0,0.0
07/04/2022,01:51:37,0.001,0.0,0.0,0.0
07/04/2022,01:52:37,0.001,0.0,0.0,0.0
07/04/2022,01:53:38,0.001,0.0,0.0,0.0
07/04/2022,01:54:46,0.001,0.0,0.0,0.0
07/04/2022,01:55:38,0.001,0.0,0.0,0.0
07/04/2022,01:56:38,0.001,0.0,0.0,0.0
07/04/2022,01:57:37,0.001,0.0,0.0,0.0
07/04/2022,01:58:38,0.001,0.0,0.0,0.0
07/04/2022,01:59:37,0.002,0.0,0.0,0.0
07/04/2022,02:00:37,0.001,0.0,0.0,0.0
07/04/2022,02:01:38,0.001,0.0,0.0,0.0
07/04/2022,02:02:37,0.001,0.0,0.0,0.0
07/04/2022,02:03:38,0.001,0.0,0.0,0.0
07/04/2022,02:04:46,0.001,0.0,0.0,0.0
07/04/2022,02:05:37,0.001,0.0,0.0,0.0
07/04/2022,02:06:38,0.001,0.0,0.0,0.0
07/04/2022,02:07:38,0.001,0.0,0.0,0.0
07/04/2022,02:08:37,0.001,0.0,0.0,0.0
07/04/2022,02:09:38,0.001,0.0,0.0,0.0
07/04/2022,02:10:38,0.001,0.0,0.0,0.0
07/04/2022,02:11:37,0.001,0.0,0.0,0.0
07/04/2022,02:12:37,0.001,0.0,0.0,0.0
07/04/2022,02:13:38,0.001,0.0,0.0,0.0
07/04/2022,02:14:38,0.001,0.0,0.0,0.0
07/04/2022,02:15:46,0.001,0.0,0.0,0.0
07/04/2022,02:16:37,0.001,0.0,0.0,0.0
07/04/2022,02:17:38,0.001,0.0,0.0,0.0
07/04/2022,02:18:38,0.001,0.0,0.0,0.0
07/04/2022,02:19:37,0.001,0.0,0.0,0.0
07/04/2022,02:20:38,0.001,0.0,0.0,0.0
07/04/2022,02:21:37,0.001,0.0,0.0,0.0
07/04/2022,02:22:38,0.001,0.0,0.0,0.0
07/04/2022,02:23:38,0.001,0.0,0.0,0.0
07/04/2022,02:24:38,0.001,0.0,0.0,0.0
07/04/2022,02:25:45,0.001,0.0,0.0,0.0
07/04/2022,02:26:46,0.001,0.0,0.0,0.0
07/04/2022,02:27:37,0.001,0.0,0.0,0.0
07/04/2022,02:28:38,0.001,0.0,0.0,0.0
07/04/2022,02:29:37,0.001,0.0,0.0,0.0
07/04/2022,02:30:47,0.002,0.0,0.0,0.0
07/04/2022,02:32:38,0.001,0.0,0.0,0.0
07/04/2022,02:33:46,0.001,0.0,0.0,0.0
07/04/2022,02:34:38,0.001,0.0,0.0,0.0
07/04/2022,02:35:37,0.001,0.0,0.0,0.0
07/04/2022,02:36:37,0.001,0.0,0.0,0.0
07/04/2022,02:37:37,0.001,0.0,0.0,0.0
07/04/2022,02:38:37,0.001,0.0,0.0,0.0
07/04/2022,02:39:38,0.001,0.0,0.0,0.0
07/04/2022,02:40:38,0.001,0.0,0.0,0.0
07/04/2022,02:41:38,0.001,0.0,0.0,0.0
07/04/2022,02:42:37,0.001,0.0,0.0,0.0
07/04/2022,02:43:38,0.001,0.0,0.0,0.0
07/04/2022,02:44:37,0.001,0.0,0.0,0.0
07/04/2022,02:45:37,-0.000,0.0,0.0,0.0
07/04/2022,02:46:37,0.001,0.0,0.0,0.0
07/04/2022,02:47:38,0.001,0.0,0.0,0.0
07/04/2022,02:48:38,0.001,0.0,0.0,0.0
07/04/2022,02:49:37,0.001,0.0,0.0,0.0
07/04/2022,02:50:55,0.001,0.0,0.0,0.0
07/04/2022,02:52:38,0.001,0.0,0.0,0.0
07/04/2022,02:53:28,0.001,0.0,0.0,0.0
07/04/2022,02:54:38,0.001,0.0,0.0,0.0
07/04/2022,02:55:38,0.001,0.0,0.0,0.0
07/04/2022,02:56:37,0.001,0.0,0.0,0.0
07/04/2022,02:57:38,0.001,0.0,0.0,0.0
07/04/2022,02:58:37,0.001,0.0,0.0,0.0
07/04/2022,02:59:38,0.001,0.0,0.0,0.0
07/04/2022,03:00:38,0.001,0.0,0.0,0.0
07/04/2022,03:01:38,-0.000,0.0,0.0,0.0
07/04/2022,03:02:46,0.001,0.0,0.0,0.0
07/04/2022,03:04:38,0.001,0.0,0.0,0.0
07/04/2022,03:05:46,0.001,0.0,0.0,0.0
07/04/2022,03:06:37,0.001,0.0,0.0,0.0
07/04/2022,03:07:38,0.001,0.0,0.0,0.0
07/04/2022,03:08:46,0.000,0.0,0.0,0.0
07/04/2022,03:09:37,0.001,0.0,0.0,0.0
07/04/2022,03:10:37,0.000,0.0,0.0,0.0
07/04/2022,03:11:38,0.001,0.0,0.0,0.0
07/04/2022,03:12:38,0.001,0.0,0.0,0.0
07/04/2022,03:13:37,0.001,0.0,0.0,0.0
07/04/2022,03:14:37,0.001,0.0,0.0,0.0
07/04/2022,03:15:38,-0.000,0.0,0.0,0.0
07/04/2022,03:16:37,0.000,0.0,0.0,0.0
07/04/2022,03:17:38,0.001,0.0,0.0,0.0
07/04/2022,03:19:38,0.000,0.0,0.0,0.0
07/04/2022,03:20:38,0.000,0.0,0.0,0.0
07/04/2022,03:21:37,-0.000,0.0,0.0,0.0
07/04/2022,03:22:38,0.001,0.0,0.0,0.0
07/04/2022,03:23:38,0.001,0.0,0.0,0.0
07/04/2022,03:24:40,0.001,0.0,0.0,0.0
07/04/2022,03:25:38,0.001,0.0,0.0,0.0
07/04/2022,03:26:37,0.001,0.0,0.0,0.0
07/04/2022,03:27:38,0.001,0.0,0.0,0.0
07/04/2022,03:28:37,0.001,0.0,0.0,0.0
07/04/2022,03:29:38,0.001,0.0,0.0,0.0
07/04/2022,03:30:38,0.001,0.0,0.0,0.0
07/04/2022,03:31:37,0.001,0.0,0.0,0.0
07/04/2022,03:32:37,0.001,0.0,0.0,0.0
07/04/2022,03:33:38,0.001,0.0,0.0,0.0
07/04/2022,03:34:38,0.000,0.0,0.0,0.0
07/04/2022,03:35:38,0.001,0.0,0.0,0.0
07/04/2022,03:36:38,0.001,0.0,0.0,0.0
07/04/2022,03:37:46,0.001,0.0,0.0,0.0
07/04/2022,03:38:37,0.001,0.0,0.0,0.0
07/04/2022,03:39:38,0.001,0.0,0.0,0.0
07/04/2022,03:40:46,0.001,0.0,0.0,0.0
07/04/2022,03:42:47,0.001,0.0,0.0,0.0
07/04/2022,03:44:39,0.001,0.0,0.0,0.0
07/04/2022,03:45:38,0.001,0.0,0.0,0.0
07/04/2022,03:46:37,0.001,0.0,0.0,0.0
07/04/2022,03:47:37,0.001,0.0,0.0,0.0
07/04/2022,03:48:40,0.001,0.0,0.0,0.0
07/04/2022,03:49:38,0.001,0.0,0.0,0.0
07/04/2022,03:50:46,0.001,0.0,0.0,0.0
07/04/2022,03:52:38,0.001,0.0,0.0,0.0
07/04/2022,03:53:38,0.001,0.0,0.0,0.0
07/04/2022,03:54:38,0.001,0.0,0.0,0.0
07/04/2022,03:55:38,-0.000,0.0,0.0,0.0
07/04/2022,03:56:38,0.001,0.0,0.0,0.0
07/04/2022,03:57:38,0.001,0.0,0.0,0.0
07/04/2022,03:58:38,0.001,0.0,0.0,0.0
07/04/2022,03:59:38,0.001,0.0,0.0,0.0
07/04/2022,04:00:37,0.001,0.0,0.0,0.0
07/04/2022,04:01:37,0.001,0.0,0.0,0.0
07/04/2022,04:02:40,0.001,0.0,0.0,0.0
07/04/2022,04:03:38,0.001,0.0,0.0,0.0
07/04/2022,04:04:37,0.001,0.0,0.0,0.0
07/04/2022,04:05:37,0.001,0.0,0.0,0.0
07/04/2022,04:06:46,0.001,0.0,0.0,0.0
07/04/2022,04:08:40,0.001,0.0,0.0,0.0
07/04/2022,04:09:46,0.001,0.0,0.0,0.0
07/04/2022,04:11:38,0.001,0.0,0.0,0.0
07/04/2022,04:12:38,0.001,0.0,0.0,0.0
07/04/2022,04:13:38,0.001,0.0,0.0,0.0
07/04/2022,04:14:37,0.001,0.0,0.0,0.0
07/04/2022,04:15:38,0.001,0.0,0.0,0.0
07/04/2022,04:16:38,0.001,0.0,0.0,0.0
07/04/2022,04:17:37,0.001,0.0,0.0,0.0
07/04/2022,04:18:38,0.001,0.0,0.0,0.0
07/04/2022,04:19:38,0.001,0.0,0.0,0.0
07/04/2022,04:20:47,0.001,0.0,0.0,0.0
07/04/2022,04:21:38,0.001,0.0,0.0,0.0
07/04/2022,04:22:38,0.001,0.0,0.0,0.0
07/04/2022,04:23:37,0.001,0.0,0.0,0.0
07/04/2022,04:24:38,0.001,0.0,0.0,0.0
07/04/2022,04:25:38,0.001,0.0,0.0,0.0
07/04/2022,04:26:38,0.001,0.0,0.0,0.0
07/04/2022,04:27:38,0.001,0.0,0.0,0.0
07/04/2022,04:28:38,0.001,0.0,0.0,0.0
07/04/2022,04:29:38,0.001,0.0,0.0,0.0
07/04/2022,04:30:38,0.001,0.0,0.0,0.0
07/04/2022,04:31:38,0.001,0.0,0.0,0.0
07/04/2022,04:32:38,-0.000,0.0,0.0,0.0
07/04/2022,04:33:37,0.000,0.0,0.0,0.0
07/04/2022,04:34:38,0.001,0.0,0.0,0.0
07/04/2022,04:35:38,0.001,0.0,0.0,0.0
07/04/2022,04:36:38,0.001,0.0,0.0,0.0
07/04/2022,04:37:37,0.001,0.0,0.0,0.0
07/04/2022,04:38:46,0.001,0.0,0.0,0.0
07/04/2022,04:40:38,0.001,0.0,0.0,0.0
07/04/2022,04:41:46,0.001,0.0,0.0,0.0
07/04/2022,04:43:38,0.001,0.0,0.0,0.0
07/04/2022,04:44:38,0.001,0.0,0.0,0.0
07/04/2022,04:45:37,0.001,0.0,0.0,0.0
07/04/2022,04:46:37,0.000,0.0,0.0,0.0
07/04/2022,04:47:38,0.001,0.0,0.0,0.0
07/04/2022,04:48:38,0.001,0.0,0.0,0.0
07/04/2022,04:49:37,0.001,0.0,0.0,0.0
07/04/2022,04:50:38,0.001,0.0,0.0,0.0
07/04/2022,04:51:38,0.001,0.0,0.0,0.0
07/04/2022,04:52:46,0.001,0.0,0.0,0.0
07/04/2022,04:53:37,0.001,0.0,0.0,0.0
07/04/2022,04:54:38,0.001,0.0,0.0,0.0
07/04/2022,04:55:38,0.001,0.0,0.0,0.0
07/04/2022,04:56:38,0.001,0.0,0.0,0.0
07/04/2022,04:57:37,0.001,0.0,0.0,0.0
07/04/2022,04:58:37,0.001,0.0,0.0,0.0
07/04/2022,04:59:38,0.001,0.0,0.0,0.0
07/04/2022,05:00:38,0.001,0.0,0.0,0.0
07/04/2022,05:01:38,0.001,0.0,0.0,0.0
07/04/2022,05:02:46,0.001,0.0,0.0,0.0
07/04/2022,05:04:47,0.001,0.0,0.0,0.0
07/04/2022,05:06:39,0.001,0.0,0.0,0.0
07/04/2022,05:07:38,0.001,0.0,0.0,0.0
07/04/2022,05:08:37,0.001,0.0,0.0,0.0
07/04/2022,05:09:39,0.001,0.0,0.0,0.0
07/04/2022,05:10:46,0.001,0.0,0.0,0.0
07/04/2022,05:11:37,0.001,0.0,0.0,0.0
07/04/2022,05:12:38,0.001,0.0,0.0,0.0
07/04/2022,05:13:38,0.001,0.0,0.0,0.0
07/04/2022,05:14:38,0.001,0.0,0.0,0.0
07/04/2022,05:15:39,0.001,0.0,0.0,0.0
07/04/2022,05:16:38,0.001,0.0,0.0,0.0
07/04/2022,05:17:38,0.001,0.0,0.0,0.0
07/04/2022,05:18:37,0.001,0.0,0.0,0.0
07/04/2022,05:19:38,0.001,0.0,0.0,0.0
07/04/2022,05:20:40,0.001,0.0,0.0,0.0
07/04/2022,05:21:46,0.002,0.0,0.0,0.0
07/04/2022,05:22:38,0.003,0.0,0.0,0.0
07/04/2022,05:23:54,0.002,0.0,0.0,0.0
07/04/2022,05:25:46,0.002,0.0,0.0,0.0
07/04/2022,05:27:38,0.002,0.0,0.0,0.0
07/04/2022,05:28:53,0.002,0.0,0.0,0.0
07/04/2022,05:30:39,0.004,0.0,0.0,0.0
07/04/2022,05:31:46,0.003,0.0,0.0,0.0
07/04/2022,05:32:37,0.003,0.0,0.0,0.0
07/04/2022,05:33:38,0.003,0.0,0.0,0.0
07/04/2022,05:34:38,0.003,0.0,0.0,0.0
07/04/2022,05:35:38,0.003,0.0,0.0,0.0
07/04/2022,05:36:38,0.004,0.0,0.0,0.0
07/04/2022,05:37:38,0.004,0.0,0.0,0.0
07/04/2022,05:38:38,0.003,0.0,0.0,0.0
07/04/2022,05:39:47,0.004,0.0,0.0,0.0
07/04/2022,05:40:38,0.005,0.0,0.0,0.0
07/04/2022,05:41:38,0.005,0.0,0.0,0.0
07/04/2022,05:42:38,0.005,0.0,0.0,0.0
07/04/2022,05:43:38,0.005,0.0,0.0,0.0
07/04/2022,05:44:37,0.005,0.0,0.0,0.0
07/04/2022,05:45:39,0.007,0.0,0.0,0.0
07/04/2022,05:46:37,0.005,0.0,0.0,0.0
07/04/2022,05:47:38,0.007,0.0,0.0,0.0
07/04/2022,05:48:38,0.008,0.0,0.0,0.0
07/04/2022,05:49:38,0.007,0.0,0.0,0.0
07/04/2022,05:50:38,0.007,0.0,0.0,0.0
07/04/2022,05:51:37,0.007,0.0,0.001,0.001
07/04/2022,05:52:38,0.008,0.0,0.001,0.0
07/04/2022,05:53:39,0.009,0.0,0.001,0.0
07/04/2022,05:54:38,0.009,0.0,0.001,0.0
07/04/2022,05:55:38,0.009,0.0,0.001,0.0
07/04/2022,05:56:38,0.009,0.0,0.001,0.0
07/04/2022,05:57:38,0.009,0.0,0.001,0.0
07/04/2022,05:58:37,0.010,0.0,0.002,0.001
07/04/2022,05:59:38,0.011,0.0,0.002,0.0
07/04/2022,06:00:46,0.012,0.0,0.002,0.0
07/04/2022,06:01:45,0.012,0.0,0.002,0.0
07/04/2022,06:02:38,0.012,0.0,0.002,0.0
07/04/2022,06:03:38,0.013,0.0,0.003,0.001
07/04/2022,06:04:38,0.013,0.0,0.003,0.0
07/04/2022,06:05:38,0.014,0.0,0.003,0.0
07/04/2022,06:06:38,0.014,0.0,0.003,0.0
07/04/2022,06:07:38,0.016,0.0,0.003,0.0
07/04/2022,06:09:47,0.016,0.0,0.004,0.001
07/04/2022,06:11:39,0.017,0.0,0.005,0.001
07/04/2022,06:12:38,0.018,0.0,0.005,0.0
07/04/2022,06:13:38,0.018,0.0,0.005,0.0
07/04/2022,06:14:38,0.019,0.0,0.005,0.0
07/04/2022,06:15:37,0.021,0.0,0.006,0.001
07/04/2022,06:16:38,0.020,0.0,0.006,0.0
07/04/2022,06:17:38,0.021,0.0,0.006,0.0
07/04/2022,06:18:38,0.022,0.0,0.007,0.001
07/04/2022,06:19:38,0.023,0.0,0.007,0.0
07/04/2022,06:20:37,0.022,0.0,0.008,0.001
07/04/2022,06:21:38,0.024,0.0,0.008,0.0
07/04/2022,06:22:38,0.025,0.0,0.008,0.0
07/04/2022,06:23:38,0.026,0.0,0.009,0.001
07/04/2022,06:24:38,0.026,0.0,0.009,0.0
07/04/2022,06:25:38,0.027,0.0,0.01,0.001
07/04/2022,06:26:46,0.028,0.0,0.01,0.0
07/04/2022,06:27:37,0.029,0.0,0.011,0.001
07/04/2022,06:28:38,0.030,0.0,0.011,0.0
07/04/2022,06:29:38,0.031,0.0,0.012,0.001
07/04/2022,06:30:39,0.031,0.0,0.012,0.0
07/04/2022,06:31:38,0.033,0.0,0.013,0.001
07/04/2022,06:32:38,0.034,0.0,0.013,0.0
07/04/2022,06:33:45,0.035,0.0,0.014,0.001
07/04/2022,06:34:38,0.034,0.0,0.014,0.0
07/04/2022,06:35:38,0.037,0.0,0.015,0.001
07/04/2022,06:36:38,0.037,0.0,0.016,0.001
07/04/2022,06:37:38,0.039,0.0,0.016,0.0
07/04/2022,06:38:38,0.040,0.0,0.017,0.001
07/04/2022,06:39:38,0.041,0.0,0.018,0.001
07/04/2022,06:40:39,0.042,0.0,0.018,0.0
07/04/2022,06:41:38,0.045,0.0,0.019,0.001
07/04/2022,06:42:37,0.045,0.0,0.02,0.001
07/04/2022,06:43:38,0.047,0.0,0.02,0.0
07/04/2022,06:44:39,0.047,0.0,0.021,0.001
07/04/2022,06:45:38,0.048,0.0,0.022,0.001
07/04/2022,06:46:38,0.050,0.0,0.023,0.001
07/04/2022,06:47:38,0.051,0.0,0.024,0.001
07/04/2022,06:48:46,0.052,0.0,0.025,0.001
07/04/2022,06:50:38,0.054,0.0,0.026,0.001
07/04/2022,06:51:38,0.058,0.0,0.027,0.001
07/04/2022,06:52:38,0.058,0.0,0.028,0.001
07/04/2022,06:53:37,0.060,0.0,0.029,0.001
07/04/2022,06:54:38,0.061,0.0,0.03,0.001
07/04/2022,06:55:46,0.062,0.0,0.031,0.001
07/04/2022,06:56:37,0.064,0.0,0.032,0.001
07/04/2022,06:57:37,0.065,0.0,0.033,0.001
07/04/2022,06:58:47,0.068,0.0,0.035,0.002
07/04/2022,06:59:38,0.069,0.0,0.036,0.001
07/04/2022,07:00:37,0.072,0.0,0.037,0.001
07/04/2022,07:01:38,0.072,0.0,0.038,0.001
07/04/2022,07:02:38,0.074,0.0,0.039,0.001
07/04/2022,07:03:38,0.076,0.0,0.041,0.002
07/04/2022,07:04:38,0.078,0.0,0.042,0.001
07/04/2022,07:05:38,0.079,0.0,0.043,0.001
07/04/2022,07:06:46,0.081,0.0,0.045,0.002
07/04/2022,07:07:37,0.083,0.0,0.046,0.001
07/04/2022,07:08:38,0.085,0.0,0.047,0.001
07/04/2022,07:09:31,0.087,0.0,0.048,0.001
07/04/2022,07:10:38,0.089,0.0,0.05,0.002
07/04/2022,07:11:38,0.091,0.0,0.052,0.002
07/04/2022,07:12:38,0.092,0.0,0.053,0.001
07/04/2022,07:13:38,0.094,0.0,0.055,0.002
07/04/2022,07:14:38,0.098,0.0,0.056,0.001
07/04/2022,07:15:38,0.099,0.0,0.058,0.002
07/04/2022,07:16:47,0.102,0.0,0.06,0.002
07/04/2022,07:18:38,0.103,0.0,0.063,0.003
07/04/2022,07:19:38,0.106,0.0,0.065,0.002
07/04/2022,07:20:38,0.104,0.0,0.067,0.002
07/04/2022,07:21:38,0.106,0.0,0.068,0.001
07/04/2022,07:22:37,0.102,0.0,0.07,0.002
07/04/2022,07:23:38,0.105,0.0,0.072,0.002
07/04/2022,07:24:38,0.113,0.0,0.074,0.002
07/04/2022,07:25:38,0.112,0.0,0.075,0.001
07/04/2022,07:26:38,0.115,0.0,0.077,0.002
07/04/2022,07:27:38,0.128,0.0,0.079,0.002
07/04/2022,07:28:38,0.129,0.0,0.081,0.002
07/04/2022,07:29:38,0.132,0.0,0.084,0.003
07/04/2022,07:30:38,0.133,0.0,0.086,0.002
07/04/2022,07:31:38,0.136,0.0,0.088,0.002
07/04/2022,07:32:38,0.140,0.0,0.09,0.002
07/04/2022,07:33:38,0.143,0.0,0.093,0.003
07/04/2022,07:34:38,0.134,0.0,0.095,0.002
07/04/2022,07:35:38,0.138,0.0,0.097,0.002
07/04/2022,07:36:39,0.152,0.0,0.1,0.003
07/04/2022,07:37:38,0.154,0.0,0.102,0.002
07/04/2022,07:38:46,0.157,0.0,0.105,0.003
07/04/2022,07:39:37,0.160,0.0,0.108,0.003
07/04/2022,07:40:39,0.162,0.0,0.11,0.002
07/04/2022,07:41:38,0.166,0.0,0.113,0.003
07/04/2022,07:42:39,0.169,0.0,0.116,0.003
07/04/2022,07:43:38,0.172,0.0,0.119,0.003
07/04/2022,07:44:38,0.175,0.0,0.122,0.003
07/04/2022,07:45:38,0.179,0.0,0.125,0.003
07/04/2022,07:46:47,0.183,0.0,0.128,0.003
07/04/2022,07:48:39,0.189,0.0,0.134,0.006
07/04/2022,07:49:38,0.192,0.0,0.137,0.003
07/04/2022,07:50:38,0.195,0.0,0.14,0.003
07/04/2022,07:51:39,0.198,0.0,0.143,0.003
07/04/2022,07:52:38,0.202,0.0,0.147,0.004
07/04/2022,07:53:38,0.205,0.0,0.15,0.003
07/04/2022,07:54:38,0.208,0.0,0.154,0.004
07/04/2022,07:55:38,0.212,0.0,0.157,0.003
07/04/2022,07:56:38,0.217,0.0,0.161,0.004
07/04/2022,07:57:38,0.221,1.0,0.164,0.003
07/04/2022,07:58:38,0.224,1.0,0.168,0.004
07/04/2022,07:59:38,0.227,1.0,0.172,0.004
07/04/2022,08:00:38,0.231,1.0,0.176,0.004
07/04/2022,08:01:38,0.235,1.0,0.179,0.003
07/04/2022,08:02:38,0.238,1.0,0.183,0.004
07/04/2022,08:03:48,0.243,1.0,0.188,0.005
07/04/2022,08:05:39,0.249,1.0,0.196,0.008
07/04/2022,08:06:38,0.253,1.0,0.2,0.004
07/04/2022,08:07:38,0.258,1.0,0.204,0.004
07/04/2022,08:08:38,0.260,1.0,0.208,0.004
07/04/2022,08:09:38,0.265,1.0,0.213,0.005
07/04/2022,08:10:38,0.268,1.0,0.217,0.004
07/04/2022,08:11:38,0.275,1.0,0.222,0.005
07/04/2022,08:12:38,0.282,1.0,0.226,0.004
07/04/2022,08:13:38,0.288,1.0,0.231,0.005
07/04/2022,08:14:38,0.253,1.0,0.236,0.005
07/04/2022,08:15:38,0.292,1.0,0.24,0.004
07/04/2022,08:16:38,0.297,1.0,0.245,0.005
07/04/2022,08:17:38,0.298,1.0,0.25,0.005
07/04/2022,08:18:38,0.304,1.0,0.255,0.005
07/04/2022,08:19:38,0.305,1.0,0.26,0.005
07/04/2022,08:20:38,0.313,1.0,0.265,0.005
07/04/2022,08:21:29,0.317,1.0,0.269,0.004
07/04/2022,08:22:39,0.323,1.0,0.276,0.007
07/04/2022,08:23:38,0.329,1.0,0.281,0.005
07/04/2022,08:24:46,0.335,1.0,0.287,0.006
07/04/2022,08:25:37,0.341,1.0,0.292,0.005
07/04/2022,08:26:38,0.345,1.0,0.298,0.006
07/04/2022,08:27:38,0.347,1.0,0.303,0.005
07/04/2022,08:28:38,0.352,1.0,0.309,0.006
07/04/2022,08:29:38,0.358,1.0,0.315,0.006
07/04/2022,08:30:38,0.364,1.0,0.321,0.006
07/04/2022,08:31:38,0.368,1.0,0.327,0.006
07/04/2022,08:32:38,0.372,1.0,0.333,0.006
07/04/2022,08:33:38,0.383,1.0,0.34,0.007
07/04/2022,08:34:38,0.380,1.0,0.346,0.006
07/04/2022,08:35:46,0.349,1.0,0.353,0.007
07/04/2022,08:37:39,0.404,1.0,0.365,0.012
07/04/2022,08:38:38,0.356,1.0,0.371,0.006
07/04/2022,08:39:38,0.344,1.0,0.377,0.006
07/04/2022,08:40:38,0.402,1.0,0.384,0.007
07/04/2022,08:41:38,0.405,1.0,0.39,0.006
07/04/2022,08:42:38,0.325,1.0,0.396,0.006
07/04/2022,08:43:38,0.348,1.0,0.401,0.005
07/04/2022,08:44:39,0.409,1.0,0.408,0.007
07/04/2022,08:45:46,0.335,1.0,0.415,0.007
07/04/2022,08:46:38,0.351,1.0,0.42,0.005
07/04/2022,08:47:38,0.460,1.0,0.427,0.007
07/04/2022,08:48:47,0.450,1.0,0.435,0.008
07/04/2022,08:50:47,0.356,1.0,0.448,0.013
07/04/2022,08:52:38,0.385,1.0,0.459,0.011
07/04/2022,08:53:38,0.387,1.0,0.466,0.007
07/04/2022,08:54:38,0.418,1.0,0.472,0.006
07/04/2022,08:55:39,0.457,1.0,0.48,0.008
07/04/2022,08:56:48,0.499,1.0,0.49,0.01
07/04/2022,08:58:39,0.512,1.0,0.505,0.015
07/04/2022,08:59:38,0.416,1.0,0.513,0.008
07/04/2022,09:00:38,0.471,1.0,0.52,0.007
07/04/2022,09:01:38,0.373,1.0,0.527,0.007
07/04/2022,09:02:38,0.539,1.0,0.534,0.007
07/04/2022,09:03:38,0.564,1.0,0.543,0.009
07/04/2022,09:04:38,0.414,1.0,0.551,0.008
07/04/2022,09:05:39,0.503,1.0,0.559,0.008
07/04/2022,09:06:38,0.507,1.0,0.568,0.009
07/04/2022,09:07:38,0.377,1.0,0.575,0.007
07/04/2022,09:08:39,0.413,1.0,0.581,0.006
07/04/2022,09:09:38,0.403,1.0,0.588,0.007
07/04/2022,09:10:38,0.379,1.0,0.595,0.007
07/04/2022,09:11:38,0.358,1.0,0.601,0.006
07/04/2022,09:12:38,0.392,1.0,0.608,0.007
07/04/2022,09:13:38,0.461,1.0,0.615,0.007
07/04/2022,09:14:38,0.432,1.0,0.622,0.007
07/04/2022,09:15:38,0.295,1.0,0.628,0.006
07/04/2022,09:16:38,0.310,1.0,0.633,0.005
07/04/2022,09:17:38,0.354,1.0,0.639,0.006
07/04/2022,09:18:38,0.364,1.0,0.645,0.006
07/04/2022,09:19:38,0.349,1.0,0.651,0.006
07/04/2022,09:20:47,0.344,1.0,0.657,0.006
07/04/2022,09:21:38,0.377,1.0,0.663,0.006
07/04/2022,09:22:38,0.417,1.0,0.669,0.006
07/04/2022,09:23:40,0.407,1.0,0.678,0.009
07/04/2022,09:24:38,0.465,1.0,0.685,0.007
07/04/2022,09:25:38,0.427,1.0,0.692,0.007
07/04/2022,09:26:38,0.443,1.0,0.7,0.008
07/04/2022,09:27:38,0.422,1.0,0.708,0.008
07/04/2022,09:28:38,0.429,1.0,0.715,0.007
07/04/2022,09:29:38,0.448,1.0,0.723,0.008
07/04/2022,09:30:38,0.461,1.0,0.73,0.007
07/04/2022,09:31:38,0.565,1.0,0.738,0.008
07/04/2022,09:32:38,0.542,1.0,0.748,0.01
07/04/2022,09:33:38,0.542,1.0,0.757,0.009
07/04/2022,09:34:38,0.737,2.0,0.769,0.012
07/04/2022,09:35:38,0.503,1.0,0.779,0.01
07/04/2022,09:36:38,0.531,1.0,0.788,0.009
07/04/2022,09:37:39,0.658,2.0,0.8,0.012
07/04/2022,09:38:38,0.601,1.0,0.811,0.011
07/04/2022,09:39:38,0.550,1.0,0.82,0.009
07/04/2022,09:40:38,0.534,1.0,0.83,0.01
07/04/2022,09:41:38,0.526,1.0,0.839,0.009
07/04/2022,09:42:38,0.551,1.0,0.848,0.009
07/04/2022,09:43:38,0.613,1.0,0.858,0.01
07/04/2022,09:44:47,0.777,2.0,0.87,0.012
07/04/2022,09:46:39,0.780,2.0,0.894,0.024
07/04/2022,09:47:38,0.562,1.0,0.904,0.01
07/04/2022,09:48:38,0.738,2.0,0.916,0.012
07/04/2022,09:49:38,0.817,2.0,0.927,0.011
07/04/2022,09:50:38,0.556,1.0,0.939,0.012
07/04/2022,09:51:38,0.659,2.0,0.949,0.01
07/04/2022,09:52:47,0.553,1.0,0.96,0.011
07/04/2022,09:54:38,0.506,1.0,0.977,0.017
07/04/2022,09:55:46,0.530,1.0,0.986,0.009
07/04/2022,09:56:38,0.664,2.0,0.995,0.009
07/04/2022,09:57:38,0.781,2.0,1.007,0.012
07/04/2022,09:58:38,0.893,2.0,1.019,0.012
07/04/2022,09:59:38,0.903,2.0,1.034,0.015
07/04/2022,10:00:38,0.694,2.0,1.048,0.014
07/04/2022,10:01:39,0.615,1.0,1.057,0.009
07/04/2022,10:02:38,0.604,1.0,1.069,0.012
07/04/2022,10:03:38,0.790,2.0,1.081,0.012
07/04/2022,10:04:39,0.931,2.0,1.097,0.016
07/04/2022,10:05:38,0.871,2.0,1.111,0.014
07/04/2022,10:06:38,0.931,2.0,1.124,0.013
07/04/2022,10:07:38,0.604,1.0,1.139,0.015
07/04/2022,10:08:38,0.958,2.0,1.154,0.015
07/04/2022,10:09:38,1.003,2.0,1.168,0.014
07/04/2022,10:10:39,0.912,2.0,1.181,0.013
07/04/2022,10:11:38,0.660,2.0,1.195,0.014
07/04/2022,10:12:38,1.004,2.0,1.21,0.015
07/04/2022,10:13:46,1.006,2.0,1.227,0.017
07/04/2022,10:15:39,1.004,2.0,1.258,0.031
07/04/2022,10:16:46,1.017,2.0,1.277,0.019
07/04/2022,10:17:38,1.022,2.0,1.292,0.015
07/04/2022,10:18:39,1.007,2.0,1.309,0.017
07/04/2022,10:19:47,1.044,2.0,1.325,0.016
07/04/2022,10:21:39,0.917,2.0,1.351,0.026
07/04/2022,10:22:39,0.947,2.0,1.366,0.015
07/04/2022,10:23:55,1.062,2.0,1.384,0.018
07/04/2022,10:25:39,0.689,2.0,1.409,0.025
07/04/2022,10:26:38,0.659,2.0,1.422,0.013
07/04/2022,10:27:47,1.093,3.0,1.437,0.015
07/04/2022,10:29:39,1.058,2.0,1.466,0.029
07/04/2022,10:30:38,1.077,2.0,1.485,0.019
07/04/2022,10:31:39,1.080,2.0,1.498,0.013
07/04/2022,10:32:38,1.128,3.0,1.517,0.019
07/04/2022,10:33:38,1.034,2.0,1.532,0.015
07/04/2022,10:34:39,1.091,3.0,1.551,0.019
07/04/2022,10:35:39,0.642,1.0,1.563,0.012
07/04/2022,10:36:38,1.086,2.0,1.58,0.017
07/04/2022,10:37:46,0.627,1.0,1.596,0.016
07/04/2022,10:39:39,1.139,3.0,1.624,0.028
07/04/2022,10:40:38,0.715,2.0,1.637,0.013
07/04/2022,10:41:38,0.986,2.0,1.651,0.014
07/04/2022,10:42:38,1.037,2.0,1.663,0.012
07/04/2022,10:43:47,1.167,3.0,1.685,0.022
07/04/2022,10:45:39,0.798,2.0,1.715,0.03
07/04/2022,10:46:39,0.731,2.0,1.728,0.013
07/04/2022,10:47:38,0.734,2.0,1.74,0.012
07/04/2022,10:48:38,0.695,2.0,1.754,0.014
07/04/2022,10:49:39,0.678,2.0,1.766,0.012
07/04/2022,10:50:38,1.157,3.0,1.779,0.013